Showing default

QIANFAN-99, 66041

Orbit data source: Space-Track

QIANFAN-99, 66041 is a Chinese payload satellite in LEO that was launched on Fri, 17 Oct 2025 UTC via a CHANG ZHENG 6A launch vehicle from the Taiyaun Space Center, China (TSC). Payload-class satellites include a variety of spacecraft equipped with specific instruments for various scientific and technological missions. These include communications satellites like Starlink; space stations such as the ISS; scientific satellites like the Hubble; Earth observation satellites from companies like Planet Labs, Umbra, and HawkEye 360; GPS; miniature CubeSats for education and research; and military/defense satellites.

Loading next visibility...
Identifier
66041, 2025-233J
Orbit
LEO
Country
Flag of CNCN / PRC
Related business
Manufacturer
SECM
Mission
Operational Commercial Communications
Bus & Motor
QIANFAN, Unknown motor
Mass
267 kg wet, ~267 kg dry
Launch date (UTC)
2025-10-17 (7 months ago)
Launch vehicle
CHANG ZHENG 6A
Launch site
Taiyaun Space Center, China (TSC)
Object type
Payload
Rocket body
Debris
Shape & HBR
Box + 1 Pan, 14.5 m
Radar Cross Section
13.200 m²

Expand to show TLE details & history
Last TLE update: 12 hours ago

TLE from 12 hours ago
0 QIANFAN-99
1 66041U 25233J   26133.28253216  .00000107  00000-0  14784-3 0  9991
2 66041  89.0027  46.7137 0001940  73.0752 287.0612 13.51017162 28475
Epoch: 2026-05-13T06:46Z
TLE epoch observation values (Epoch: 2026-05-13T06:46:50.778Z)
Latitude
-0°
Longitude
73.95734°
Altitude
1,071.048 km
Speed
7.317 km/s
True Right ascension
03h 06m 51s
True Declination
0° 00' 00"
Sunlit
Object was in daylight at epoch
Visualization orbit readout
Latitude
Unknown
Longitude
Unknown
Altitude
Unknown
Speed
Unknown
Apparent Right ascension
Unknown
Apparent Declination
Unknown
Sunlit
N/A
Visualization observer readout
Local Sidereal Time
02:48:01
Azimuth
Unknown
Elevation
Unknown
Doppler factor
Unknown
Orbital elements
Apogee altitude
1,067.014 km
Perigee altitude
1,064.125 km
Semi-major axis
7,443.707 km
Eccentricity
0.00019
Inclination
89.0027°
RAAN
46.7137°
Arg. of periapsis
73.0752°
True anomaly
287.03995°
Mean anomaly
287.0612°
Eccentric anomaly
287.05057°
Mean motion
3.37955 °/min
Orbital period
106.52 mins
BSTAR
0.00014784
Loading maneuver chart data...
Computing Atmospheric mass density...
Loading historical data...
Loading historical data...
Loading historical data...
Loading historical data...
Loading historical data...
Loading historical data...
Loading historical data...

Documentation

Showing up to 5 results
|